Terminal Aerodrome Forecast
Issued by NWS

Home | Current Version | Previous Version | Text Only | Print | Product List | Glossary On
Versions: 1 2 3 4 5 6 7 8 9 10 11 12 13 14 15 16 17 18 19 20 21 22 23 24 25 26 27 28 29 30 31 32 33 34 35 36 37 38 39 40 41 42 43 44 45 46 47 48 49 50
000
FTUS45 KBOU 242206 AAC
TAFAPA
TAF AMD
KAPA 242206Z 2422/2518 07012KT P6SM VCSH FEW004 BKN008 OVC017
      TEMPO 2422/2424 5SM -SHRA BR BKN006
     FM250000 02008KT P6SM VCSH BKN012 OVC020
      TEMPO 2500/2504 4SM -SHRA BR BKN006
     FM250400 04004KT 4SM BR OVC006
     FM251100 03005KT 2SM BR OVC004
     FM251700 08006KT 6SM BR BKN009 BKN020=

USA.gov is the U.S. government's official web portal to all federal, state and local government web resources and services.